SUL6818 SBBR-SBCY

Flight info

Callsign SUL6818
Flight time 1h 14m
Altitude 36000
Route SIREM DCT LODOV DCT MABMA DCT BOKIM
Aircraft B738/M-SDFGIKLORWX/LB1

Departure

Time 2026-04-25 03:11
Airport Presidente Juscelino Kubitschek International Airport (SBBR)

Arrival

Time 2026-04-25 04:26
Airport Várzea Grande–Marechal Rondon International Airport (SBCY)
Time Latitude Longitude Altitude Speed Heading
2026-04-25 02:37 -15.86855 -47.92654 3467 ft 0 kts 176°
2026-04-25 03:03 -15.86848 -47.92654 3467 ft 4 kts 174°
2026-04-25 03:03 -15.86822 -47.92661 3466 ft 4 kts 150°
2026-04-25 03:04 -15.86804 -47.92678 3465 ft 4 kts 106°
2026-04-25 03:04 -15.86802 -47.92693 3466 ft 1 kts 86°
2026-04-25 03:04 -15.86803 -47.92695 3466 ft 0 kts 86°
2026-04-25 03:08 -15.86802 -47.92692 3465 ft 1 kts 86°
2026-04-25 03:08 -15.86801 -47.92672 3465 ft 4 kts 86°
2026-04-25 03:08 -15.86799 -47.92632 3467 ft 7 kts 86°
2026-04-25 03:08 -15.86795 -47.92572 3467 ft 9 kts 86°
2026-04-25 03:09 -15.86765 -47.92517 3470 ft 9 kts 33°
2026-04-25 03:09 -15.86706 -47.92483 3471 ft 10 kts 28°
2026-04-25 03:09 -15.86636 -47.92443 3469 ft 13 kts 28°
2026-04-25 03:09 -15.86549 -47.92391 3468 ft 16 kts 37°
2026-04-25 03:10 -15.86471 -47.92295 3467 ft 19 kts 54°
2026-04-25 03:10 -15.86392 -47.92178 3465 ft 21 kts 55°
2026-04-25 03:10 -15.86316 -47.92043 3465 ft 22 kts 76°
2026-04-25 03:10 -15.86301 -47.91869 3464 ft 40 kts 86°
2026-04-25 03:11 -15.86265 -47.91321 3463 ft 112 kts 86°
2026-04-25 03:11 -15.86200 -47.90303 3503 ft 168 kts 86°
2026-04-25 03:11 -15.86096 -47.89036 4087 ft 178 kts 86°
2026-04-25 03:11 -15.86098 -47.87764 4999 ft 173 kts 102°
2026-04-25 03:12 -15.86695 -47.86642 5504 ft 199 kts 134°
2026-04-25 03:12 -15.88038 -47.85995 5644 ft 232 kts 172°
2026-04-25 03:12 -15.89735 -47.86055 5930 ft 253 kts 180°
2026-04-25 03:12 -15.91580 -47.86103 6168 ft 276 kts 178°
2026-04-25 03:13 -15.93544 -47.86048 6782 ft 285 kts 175°
2026-04-25 03:13 -15.95531 -47.85896 7625 ft 286 kts 173°
2026-04-25 03:13 -15.97521 -47.85675 8466 ft 289 kts 172°
2026-04-25 03:13 -15.99513 -47.85422 8921 ft 294 kts 172°
2026-04-25 03:14 -16.01543 -47.85152 9148 ft 296 kts 172°
2026-04-25 03:14 -16.03607 -47.85104 9134 ft 298 kts 192°
2026-04-25 03:14 -16.05471 -47.85971 9175 ft 295 kts 219°
2026-04-25 03:14 -16.06763 -47.87606 9642 ft 297 kts 244°
2026-04-25 03:15 -16.07358 -47.89643 10475 ft 296 kts 264°
2026-04-25 03:15 -16.07578 -47.91839 10801 ft 318 kts 264°
2026-04-25 03:15 -16.07890 -47.94205 10983 ft 342 kts 263°
2026-04-25 03:15 -16.08241 -47.96706 11406 ft 355 kts 262°
2026-04-25 03:16 -16.08597 -47.99230 12033 ft 359 kts 262°
2026-04-25 03:16 -16.08963 -48.01841 12738 ft 362 kts 262°
2026-04-25 03:16 -16.09319 -48.04414 13354 ft 366 kts 262°
2026-04-25 03:16 -16.09679 -48.07050 13951 ft 371 kts 262°
2026-04-25 03:17 -16.10042 -48.09724 14486 ft 374 kts 262°
2026-04-25 03:17 -16.10405 -48.12416 15006 ft 378 kts 262°
2026-04-25 03:17 -16.10770 -48.15138 15528 ft 382 kts 262°
2026-04-25 03:17 -16.11138 -48.17891 16029 ft 386 kts 262°
2026-04-25 03:18 -16.11509 -48.20667 16535 ft 389 kts 262°
2026-04-25 03:18 -16.11883 -48.23476 17046 ft 393 kts 262°
2026-04-25 03:18 -16.12260 -48.26305 17554 ft 396 kts 262°
2026-04-25 03:18 -16.12640 -48.29164 18037 ft 400 kts 262°
2026-04-25 03:19 -16.12893 -48.31070 18338 ft 403 kts 262°
2026-04-25 03:19 -16.13404 -48.34921 18887 ft 407 kts 262°
2026-04-25 03:19 -16.13797 -48.37884 19333 ft 410 kts 262°
2026-04-25 03:19 -16.14186 -48.40827 19755 ft 412 kts 262°
2026-04-25 03:20 -16.14579 -48.43796 20160 ft 415 kts 262°
2026-04-25 03:20 -16.14969 -48.46746 20534 ft 419 kts 262°
2026-04-25 03:20 -16.15367 -48.49764 20912 ft 422 kts 263°
2026-04-25 03:20 -16.15767 -48.52802 21307 ft 425 kts 263°
2026-04-25 03:21 -16.16170 -48.55865 21664 ft 429 kts 263°
2026-04-25 03:21 -16.16576 -48.58950 21994 ft 432 kts 263°
2026-04-25 03:21 -16.16985 -48.62060 22373 ft 435 kts 263°
2026-04-25 03:21 -16.17396 -48.65191 22743 ft 437 kts 263°
2026-04-25 03:22 -16.17808 -48.68335 23091 ft 440 kts 263°
2026-04-25 03:22 -16.18222 -48.71502 23424 ft 443 kts 263°
2026-04-25 03:22 -16.18633 -48.74645 23734 ft 446 kts 263°
2026-04-25 03:22 -16.19052 -48.77850 24090 ft 448 kts 263°
2026-04-25 03:23 -16.19472 -48.81069 24394 ft 450 kts 263°
2026-04-25 03:23 -16.19893 -48.84297 24695 ft 452 kts 263°
2026-04-25 03:23 -16.20315 -48.87543 24986 ft 454 kts 263°
2026-04-25 03:23 -16.20741 -48.90817 25271 ft 456 kts 263°
2026-04-25 03:24 -16.21166 -48.94090 25548 ft 458 kts 263°
2026-04-25 03:24 -16.21593 -48.97386 25819 ft 460 kts 263°
2026-04-25 03:24 -16.22022 -49.00693 26090 ft 462 kts 262°
2026-04-25 03:24 -16.22451 -49.04013 26360 ft 464 kts 262°
2026-04-25 03:25 -16.22882 -49.07347 26627 ft 466 kts 262°
2026-04-25 03:25 -16.23314 -49.10698 26882 ft 468 kts 262°
2026-04-25 03:25 -16.23741 -49.14013 27128 ft 470 kts 262°
2026-04-25 03:25 -16.24182 -49.17433 27364 ft 472 kts 262°
2026-04-25 03:26 -16.24612 -49.20786 27597 ft 474 kts 262°
2026-04-25 03:26 -16.25050 -49.24194 27833 ft 476 kts 262°
2026-04-25 03:26 -16.25488 -49.27607 28057 ft 477 kts 262°
2026-04-25 03:26 -16.25927 -49.31040 28274 ft 479 kts 262°
2026-04-25 03:27 -16.26368 -49.34488 28498 ft 481 kts 262°
2026-04-25 03:27 -16.26810 -49.37949 28731 ft 483 kts 262°
2026-04-25 03:27 -16.27253 -49.41420 28947 ft 485 kts 262°
2026-04-25 03:27 -16.27697 -49.44907 29170 ft 487 kts 262°
2026-04-25 03:28 -16.28142 -49.48409 29390 ft 488 kts 262°
2026-04-25 03:28 -16.28589 -49.51923 29611 ft 490 kts 262°
2026-04-25 03:28 -16.29035 -49.55443 29823 ft 492 kts 262°
2026-04-25 03:28 -16.29483 -49.58981 30019 ft 494 kts 262°
2026-04-25 03:29 -16.29933 -49.62533 30257 ft 494 kts 262°
2026-04-25 03:29 -16.30380 -49.66073 30551 ft 492 kts 262°
2026-04-25 03:29 -16.30825 -49.69602 30888 ft 490 kts 262°
2026-04-25 03:29 -16.31267 -49.73109 31220 ft 488 kts 262°
2026-04-25 03:30 -16.31702 -49.76567 31509 ft 487 kts 262°
2026-04-25 03:30 -16.32141 -49.80065 31800 ft 487 kts 262°
2026-04-25 03:30 -16.32584 -49.83596 32110 ft 485 kts 262°
2026-04-25 03:30 -16.33015 -49.87035 32430 ft 484 kts 262°
2026-04-25 03:31 -16.33450 -49.90511 32754 ft 483 kts 262°
2026-04-25 03:31 -16.33883 -49.93972 33081 ft 481 kts 262°
2026-04-25 03:31 -16.34313 -49.97422 33395 ft 480 kts 262°
2026-04-25 03:31 -16.34743 -50.00868 33709 ft 479 kts 262°
2026-04-25 03:32 -16.35171 -50.04310 34007 ft 479 kts 263°
2026-04-25 03:32 -16.35598 -50.07744 34280 ft 478 kts 263°
2026-04-25 03:32 -16.36024 -50.11172 34542 ft 477 kts 263°
2026-04-25 03:32 -16.36449 -50.14603 34783 ft 477 kts 263°
2026-04-25 03:33 -16.36872 -50.18019 35026 ft 476 kts 263°
2026-04-25 03:33 -16.37296 -50.21447 35277 ft 475 kts 263°
2026-04-25 03:33 -16.37711 -50.24813 35533 ft 474 kts 263°
2026-04-25 03:33 -16.38132 -50.28220 35772 ft 474 kts 263°
2026-04-25 03:34 -16.38552 -50.31637 35993 ft 474 kts 263°
2026-04-25 03:34 -16.38971 -50.35044 36013 ft 477 kts 263°
2026-04-25 03:34 -16.39814 -50.41913 36027 ft 477 kts 263°
2026-04-25 03:35 -16.40648 -50.48729 36016 ft 472 kts 263°
2026-04-25 03:35 -16.41475 -50.55502 36023 ft 470 kts 263°
2026-04-25 03:36 -16.42297 -50.62252 36020 ft 469 kts 263°
2026-04-25 03:36 -16.43115 -50.68989 36020 ft 469 kts 263°
2026-04-25 03:37 -16.43925 -50.75686 36019 ft 469 kts 263°
2026-04-25 03:37 -16.44741 -50.82444 36020 ft 471 kts 263°
2026-04-25 03:38 -16.45557 -50.89223 36014 ft 472 kts 263°
2026-04-25 03:38 -16.46236 -50.94875 36015 ft 474 kts 263°
2026-04-25 03:39 -16.47053 -51.01695 36015 ft 475 kts 263°
2026-04-25 03:39 -16.47870 -51.08536 36014 ft 476 kts 263°
2026-04-25 03:40 -16.48689 -51.15403 36015 ft 477 kts 263°
2026-04-25 03:40 -16.49504 -51.22268 36009 ft 478 kts 263°
2026-04-25 03:41 -16.50319 -51.29146 36011 ft 478 kts 263°
2026-04-25 03:41 -16.51131 -51.36024 36011 ft 478 kts 263°
2026-04-25 03:42 -16.51942 -51.42906 36011 ft 478 kts 263°
2026-04-25 03:42 -16.52750 -51.49785 36012 ft 478 kts 263°
2026-04-25 03:43 -16.53552 -51.56637 36008 ft 478 kts 263°
2026-04-25 03:43 -16.54355 -51.63511 36009 ft 477 kts 263°
2026-04-25 03:44 -16.55153 -51.70370 36005 ft 476 kts 263°
2026-04-25 03:44 -16.55944 -51.77183 36003 ft 476 kts 263°
2026-04-25 03:45 -16.56737 -51.84029 36005 ft 475 kts 263°
2026-04-25 03:45 -16.57526 -51.90868 36006 ft 475 kts 263°
2026-04-25 03:46 -16.58314 -51.97714 36003 ft 475 kts 263°
2026-04-25 03:46 -16.59098 -52.04548 36011 ft 475 kts 263°
2026-04-25 03:47 -16.59881 -52.11389 36008 ft 474 kts 263°
2026-04-25 03:47 -16.60660 -52.18220 36007 ft 474 kts 263°
2026-04-25 03:48 -16.61437 -52.25045 36008 ft 474 kts 263°
2026-04-25 03:48 -16.62206 -52.31828 36010 ft 474 kts 263°
2026-04-25 03:49 -16.62978 -52.38659 36006 ft 474 kts 263°
2026-04-25 03:49 -16.63749 -52.45493 36007 ft 474 kts 263°
2026-04-25 03:50 -16.64518 -52.52331 36004 ft 474 kts 263°
2026-04-25 03:50 -16.65284 -52.59174 36004 ft 475 kts 263°
2026-04-25 03:51 -16.66049 -52.66019 36004 ft 475 kts 263°
2026-04-25 03:51 -16.66149 -52.72871 36010 ft 474 kts 279°
2026-04-25 03:52 -16.64653 -52.79544 36002 ft 473 kts 285°
2026-04-25 03:52 -16.63067 -52.86174 35998 ft 473 kts 284°
2026-04-25 03:53 -16.61506 -52.92845 36001 ft 473 kts 284°
2026-04-25 03:53 -16.59964 -52.99529 36008 ft 474 kts 284°
2026-04-25 03:54 -16.58426 -53.06209 36004 ft 474 kts 284°
2026-04-25 03:54 -16.56884 -53.12896 36004 ft 474 kts 284°
2026-04-25 03:55 -16.55339 -53.19578 36006 ft 474 kts 284°
2026-04-25 03:55 -16.53801 -53.26219 36007 ft 474 kts 284°
2026-04-25 03:56 -16.52251 -53.32901 36010 ft 474 kts 284°
2026-04-25 03:56 -16.50697 -53.39588 36008 ft 474 kts 284°
2026-04-25 03:57 -16.49146 -53.46256 36004 ft 474 kts 284°
2026-04-25 03:57 -16.47589 -53.52935 36004 ft 474 kts 284°
2026-04-25 03:58 -16.46040 -53.59574 35998 ft 474 kts 284°
2026-04-25 03:58 -16.44479 -53.66249 35998 ft 474 kts 284°
2026-04-25 03:59 -16.42917 -53.72921 36001 ft 474 kts 284°
2026-04-25 03:59 -16.41353 -53.79593 35993 ft 474 kts 284°
2026-04-25 04:00 -16.39784 -53.86273 35990 ft 474 kts 284°
2026-04-25 04:00 -16.38205 -53.92989 35323 ft 482 kts 284°
2026-04-25 04:01 -16.37676 -53.95235 34931 ft 481 kts 284°
2026-04-25 04:01 -16.36609 -53.99766 34072 ft 482 kts 284°
2026-04-25 04:01 -16.35819 -54.03116 33345 ft 483 kts 284°
2026-04-25 04:01 -16.35020 -54.06502 32876 ft 478 kts 284°
2026-04-25 04:02 -16.34229 -54.09852 32377 ft 474 kts 284°
2026-04-25 04:02 -16.33443 -54.13181 31898 ft 471 kts 284°
2026-04-25 04:02 -16.32664 -54.16474 31432 ft 467 kts 284°
2026-04-25 04:02 -16.31889 -54.19749 30954 ft 464 kts 284°
2026-04-25 04:03 -16.31117 -54.23010 30472 ft 462 kts 284°
2026-04-25 04:03 -16.30349 -54.26250 29981 ft 460 kts 284°
2026-04-25 04:03 -16.29585 -54.29472 29464 ft 457 kts 284°
2026-04-25 04:03 -16.28825 -54.32673 28962 ft 453 kts 284°
2026-04-25 04:04 -16.28072 -54.35845 28472 ft 450 kts 285°
2026-04-25 04:04 -16.27324 -54.38990 28003 ft 446 kts 285°
2026-04-25 04:04 -16.26591 -54.42074 27548 ft 443 kts 285°
2026-04-25 04:04 -16.25854 -54.45170 27069 ft 439 kts 285°
2026-04-25 04:05 -16.25120 -54.48255 26611 ft 436 kts 285°
2026-04-25 04:05 -16.24392 -54.51306 26154 ft 433 kts 285°
2026-04-25 04:05 -16.23668 -54.54342 25679 ft 431 kts 285°
2026-04-25 04:05 -16.22948 -54.57358 25206 ft 428 kts 285°
2026-04-25 04:06 -16.22230 -54.60366 24752 ft 426 kts 285°
2026-04-25 04:06 -16.21516 -54.63352 24297 ft 424 kts 286°
2026-04-25 04:07 -16.19206 -54.73007 22723 ft 416 kts 286°
2026-04-25 04:07 -16.18050 -54.77830 21956 ft 409 kts 286°
2026-04-25 04:07 -16.17365 -54.80688 21516 ft 405 kts 286°
2026-04-25 04:08 -16.16685 -54.83519 21083 ft 402 kts 286°
2026-04-25 04:08 -16.16011 -54.86325 20654 ft 399 kts 285°
2026-04-25 04:08 -16.15341 -54.89112 20224 ft 396 kts 285°
2026-04-25 04:08 -16.14676 -54.91878 19788 ft 393 kts 285°
2026-04-25 04:09 -16.14013 -54.94631 19356 ft 391 kts 285°
2026-04-25 04:09 -16.13362 -54.97335 18932 ft 389 kts 285°
2026-04-25 04:09 -16.12707 -55.00055 18497 ft 387 kts 285°
2026-04-25 04:09 -16.12052 -55.02771 18019 ft 386 kts 285°
2026-04-25 04:10 -16.11399 -55.05476 17574 ft 383 kts 285°
2026-04-25 04:10 -16.10755 -55.08146 17140 ft 379 kts 285°
2026-04-25 04:10 -16.10116 -55.10791 16722 ft 376 kts 285°
2026-04-25 04:10 -16.09482 -55.13416 16309 ft 372 kts 285°
2026-04-25 04:11 -16.08232 -55.18586 15501 ft 366 kts 285°
2026-04-25 04:11 -16.07612 -55.21146 15101 ft 363 kts 285°
2026-04-25 04:11 -16.06998 -55.23679 14701 ft 360 kts 285°
2026-04-25 04:12 -16.06388 -55.26197 14299 ft 358 kts 285°
2026-04-25 04:12 -16.05782 -55.28697 13954 ft 354 kts 284°
2026-04-25 04:12 -16.05193 -55.31125 13590 ft 350 kts 284°
2026-04-25 04:12 -16.04600 -55.33571 13178 ft 347 kts 284°
2026-04-25 04:13 -16.04010 -55.36001 12780 ft 345 kts 284°
2026-04-25 04:13 -16.03424 -55.38412 12382 ft 342 kts 284°
2026-04-25 04:13 -16.02843 -55.40800 11992 ft 340 kts 284°
2026-04-25 04:13 -16.02265 -55.43178 11606 ft 338 kts 284°
2026-04-25 04:14 -16.01691 -55.45539 11223 ft 336 kts 284°
2026-04-25 04:14 -16.01118 -55.47891 10830 ft 335 kts 284°
2026-04-25 04:14 -16.00549 -55.50230 10546 ft 330 kts 284°
2026-04-25 04:14 -15.99992 -55.52513 10362 ft 322 kts 284°
2026-04-25 04:15 -15.99449 -55.54742 10225 ft 314 kts 284°
2026-04-25 04:15 -15.98920 -55.56913 10089 ft 305 kts 284°
2026-04-25 04:15 -15.98411 -55.59001 9921 ft 299 kts 284°
2026-04-25 04:15 -15.97900 -55.61094 9608 ft 298 kts 285°
2026-04-25 04:16 -15.97392 -55.63173 9318 ft 296 kts 285°
2026-04-25 04:16 -15.96888 -55.65235 9034 ft 294 kts 285°
2026-04-25 04:16 -15.96385 -55.67292 8725 ft 293 kts 285°
2026-04-25 04:16 -15.95884 -55.69344 8422 ft 291 kts 285°
2026-04-25 04:17 -15.95386 -55.71379 8130 ft 290 kts 285°
2026-04-25 04:17 -15.94888 -55.73412 7832 ft 289 kts 285°
2026-04-25 04:17 -15.94391 -55.75441 7545 ft 288 kts 285°
2026-04-25 04:17 -15.93903 -55.77436 7253 ft 288 kts 286°
2026-04-25 04:18 -15.93410 -55.79447 6954 ft 287 kts 286°
2026-04-25 04:18 -15.92920 -55.81448 6667 ft 286 kts 286°
2026-04-25 04:18 -15.92429 -55.83449 6371 ft 285 kts 286°
2026-04-25 04:18 -15.91939 -55.85445 6070 ft 284 kts 286°
2026-04-25 04:19 -15.91452 -55.87428 5775 ft 283 kts 286°
2026-04-25 04:19 -15.90966 -55.89409 5486 ft 282 kts 286°
2026-04-25 04:19 -15.90482 -55.91380 5198 ft 280 kts 285°
2026-04-25 04:19 -15.90002 -55.93333 4948 ft 278 kts 285°
2026-04-25 04:20 -15.89533 -55.95240 4898 ft 265 kts 285°
2026-04-25 04:20 -15.89091 -55.97038 4802 ft 250 kts 285°
2026-04-25 04:20 -15.88585 -55.98690 4654 ft 232 kts 302°
2026-04-25 04:20 -15.87490 -55.99746 4515 ft 211 kts 334°
2026-04-25 04:21 -15.86206 -56.00445 4264 ft 204 kts 333°
2026-04-25 04:21 -15.84998 -56.01121 4124 ft 191 kts 334°
2026-04-25 04:21 -15.83834 -56.01754 4047 ft 189 kts 334°
2026-04-25 04:21 -15.82670 -56.02379 3991 ft 187 kts 334°
2026-04-25 04:22 -15.81491 -56.03009 3769 ft 192 kts 334°
2026-04-25 04:22 -15.80307 -56.03642 3534 ft 191 kts 334°
2026-04-25 04:22 -15.79131 -56.04271 3298 ft 188 kts 333°
2026-04-25 04:22 -15.77982 -56.04886 3059 ft 184 kts 333°
2026-04-25 04:23 -15.76840 -56.05497 2853 ft 186 kts 333°
2026-04-25 04:23 -15.75713 -56.06099 2614 ft 176 kts 333°
2026-04-25 04:23 -15.74662 -56.06661 2376 ft 163 kts 333°
2026-04-25 04:23 -15.73680 -56.07187 2175 ft 157 kts 333°
2026-04-25 04:24 -15.72717 -56.07702 2014 ft 154 kts 332°
2026-04-25 04:24 -15.71768 -56.08209 1796 ft 155 kts 333°
2026-04-25 04:24 -15.70811 -56.08721 1588 ft 154 kts 333°
2026-04-25 04:24 -15.69862 -56.09229 1400 ft 153 kts 333°
2026-04-25 04:25 -15.68914 -56.09745 1194 ft 153 kts 330°
2026-04-25 04:25 -15.67987 -56.10250 1029 ft 151 kts 331°
2026-04-25 04:25 -15.67044 -56.10737 829 ft 152 kts 333°
2026-04-25 04:25 -15.66100 -56.11244 624 ft 152 kts 330°
2026-04-25 04:26 -15.65222 -56.11714 597 ft 125 kts 332°
2026-04-25 04:26 -15.64654 -56.12010 594 ft 54 kts 333°
2026-04-25 04:26 -15.64472 -56.12109 595 ft 18 kts 324°
2026-04-25 04:26 -15.64423 -56.12169 596 ft 9 kts 336°
2026-04-25 04:27 -15.64414 -56.12129 595 ft 9 kts 147°
2026-04-25 04:27 -15.64469 -56.12104 595 ft 9 kts 154°
2026-04-25 04:27 -15.64529 -56.12073 594 ft 11 kts 153°
2026-04-25 04:27 -15.64607 -56.12031 594 ft 14 kts 152°
2026-04-25 04:28 -15.64698 -56.11982 595 ft 16 kts 154°
2026-04-25 04:28 -15.64802 -56.11930 595 ft 18 kts 154°
2026-04-25 04:28 -15.64918 -56.11869 595 ft 20 kts 153°
2026-04-25 04:28 -15.65024 -56.11820 596 ft 12 kts 174°
2026-04-25 04:29 -15.65079 -56.11864 596 ft 10 kts 241°
2026-04-25 04:29 -15.65079 -56.11906 596 ft 4 kts 304°
2026-04-25 04:29 -15.65046 -56.11932 596 ft 8 kts 333°
2026-04-25 04:29 -15.64990 -56.11962 595 ft 10 kts 332°
2026-04-25 04:30 -15.64922 -56.11998 595 ft 0 kts 333°
2026-04-25 04:30 -15.64916 -56.12004 595 ft 2 kts 303°
2026-04-25 04:30 -15.64918 -56.12025 595 ft 4 kts 256°
2026-04-25 04:30 -15.64923 -56.12040 595 ft 1 kts 243°
2026-04-25 04:31 -15.64923 -56.12041 595 ft 0 kts 243°